Temperature
13 12 11 12 12 12 13 12 12 13 13 12 12 12 13 13 13 13 12 12 12 11 11 10 10 10 10 10 10 10 10 10 10 10 10 10 10 10 10 10 11 11 11 11
12 11 12 12 12 12 12 12 12 12 13 12 11 12 13 13 12 12 12 12 11 11 10 10 9 9 9 9 10 9 10 10 10 10 9 9 10 10 10 10 10 10 10 10
11 11 12 12 12 12 12 11 11 11 12 12 12 11 12 13 13 12 12 12 11 11 10 10 9 9 9 9 9 9 9 9 9 9 9 9 9 9 9 9 10 10 10 10
11 12 12 11 11 11 11 11 11 11 10 10 11 9 12 12 11 12 11 11 11 10 10 9 9 9 9 9 9 9 9 9 9 9 9 9 9 9 9 9 9 9 9 9
11 11 11 10 10 10 10 11 10 10 10 10 10 10 10 12 11 11 11 11 10 10 10 9 9 9 8 8 9 9 9 9 9 9 9 8 8 8 8 8 8 8 8 8
10 11 10 10 10 10 10 10 10 10 9 8 10 10 10 11 11 11 11 11 10 10 9 9 9 8 8 8 8 8 9 9 9 8 8 8 8 8 8 8 8 8 8 8
10 10 10 10 9 10 10 9 8 8 8 9 11 10 10 11 12 11 11 11 10 9 9 9 8 8 8 8 8 8 8 8 8 8 8 8 8 8 8 8 8 8 8 7
9 9 10 9 9 9 9 9 8 8 9 9 10 9 10 11 12 12 11 11 10 9 9 8 8 8 8 8 8 8 8 8 8 8 8 8 7 7 7 7 7 7 7 7
9 9 10 10 10 9 9 8 9 8 8 8 9 11 11 11 10 10 11 10 10 9 9 8 8 8 8 8 8 8 8 8 8 8 8 7 7 7 7 7 7 7 7 6
9 8 9 9 9 9 9 9 8 7 8 8 10 11 10 9 10 10 9 10 9 9 9 8 8 8 8 8 8 8 8 8 8 7 7 7 7 7 7 6 7 6 6 6
9 8 8 9 8 8 8 8 8 8 8 8 8 9 11 10 10 9 9 10 9 9 8 8 8 8 7 7 7 7 7 7 7 7 7 7 7 7 6 6 6 6 6 6
8 8 7 8 9 9 9 9 8 7 7 8 7 8 11 10 10 10 10 9 9 8 8 8 7 7 7 7 7 7 7 7 7 7 6 6 6 6 6 6 6 6 6 5
8 7 7 8 7 7 8 8 9 8 7 6 7 8 10 10 10 10 9 9 9 8 8 7 7 7 7 7 6 6 6 6 6 6 6 6 6 5 5 5 5 5 5 5
8 7 7 7 8 7 7 8 8 7 5 6 7 8 9 9 9 9 9 9 8 8 8 7 7 7 6 6 6 6 6 6 6 6 6 5 5 5 5 5 5 5 5 4
7 6 7 7 8 8 8 7 7 6 6 6 7 8 9 9 8 9 9 9 8 8 7 7 7 6 6 6 6 6 6 6 5 5 5 5 5 4 4 4 4 4 4 4
6 6 6 6 8 8 7 7 7 7 7 7 7 7 8 9 9 9 9 8 8 7 7 6 6 6 6 6 6 6 5 5 5 5 5 5 4 4 4 4 4 4 4 4
5 5 5 5 7 7 6 7 7 7 7 7 6 7 8 8 8 8 8 7 7 7 7 6 6 6 6 5 5 5 5 5 5 5 4 4 4 4 4 4 3 3 3 3
5 5 5 5 6 5 7 9 8 7 7 7 7 7 8 8 8 7 7 7 6 6 6 6 5 5 5 5 5 5 5 4 4 4 4 4 4 3 3 3 3 3 3 3
5 5 4 4 5 6 8 8 7 7 6 7 7 7 7 7 7 6 6 6 6 5 5 5 5 5 5 5 4 4 4 4 4 4 4 3 3 3 3 3 3 2 2 2
4 4 4 4 4 5 7 7 7 7 5 6 7 6 6 6 4 5 6 5 5 5 5 4 4 4 4 4 4 4 4 4 4 3 3 3 3 3 2 2 2 2 2 2
2 2 3 3 4 5 6 6 6 5 5 6 6 6 6 5 5 5 5 5 4 4 4 4 4 3 3 3 3 3 3 3 3 3 2 2 2 2 2 2 2 1 1 1
3 2 3 3 3 4 5 5 5 5 6 6 5 5 5 5 5 4 4 4 4 3 3 3 3 3 3 2 2 3 2 2 2 2 2 2 2 2 1 1 1 1 1 1
4 4 4 4 4 6 6 5 5 5 5 5 5 4 4 4 4 4 4 3 3 3 3 3 2 2 2 2 2 2 2 2 2 2 2 2 1 1 1 1 1 1 0 0
4 5 4 4 5 6 6 5 5 5 4 4 4 4 4 3 3 3 3 3 2 2 2 2 2 2 2 2 2 1 2 1 1 1 1 1 1 1 1 0 0 0 0 -0
4 3 3 3 4 5 5 5 4 4 4 3 3 3 3 3 2 2 2 2 2 2 1 1 1 1 1 1 1 1 1 1 1 1 1 1 0 0 0 0 -0 -0 -0 -1
3 3 2 3 4 4 4 4 4 3 3 3 3 2 2 2 2 2 1 1 1 1 1 1 1 1 1 1 1 1 1 1 0 0 0 0 0 -0 -0 -0 -1 -1 -1 -1
Wind_Speed
3 2 1 3 4 5 6 6 7 5 3 4 5 8 6 3 3 3 2 3 4 5 5 6 6 6 6 5 5 4 4 3 2 2 2 2 1 1 1 2 3 3 3 3
1 2 3 4 5 6 7 7 6 4 4 5 6 9 7 4 4 3 3 3 4 5 6 6 6 6 5 4 4 4 4 3 2 2 2 1 2 1 1 1 2 2 2 3
2 2 3 4 5 5 5 5 6 6 7 5 5 6 4 3 4 4 2 2 3 5 6 6 6 5 5 4 4 3 3 3 2 3 2 2 2 1 1 1 1 1 1 2
2 1 3 4 4 6 4 5 7 7 6 4 3 4 4 4 5 5 5 4 3 4 4 5 6 6 5 4 4 3 3 3 3 3 3 3 2 1 1 1 1 0 0 1
2 2 3 3 3 5 3 6 7 7 6 5 4 3 5 3 3 4 5 5 4 4 5 5 5 5 5 4 4 3 3 3 3 3 3 2 1 1 1 1 1 0 0 0
3 0 2 2 3 4 4 6 6 5 2 3 5 4 4 2 2 3 4 5 5 4 4 5 5 5 4 5 4 3 3 3 3 2 2 2 2 2 1 1 1 1 1 1
3 3 2 1 3 2 3 2 2 2 2 4 1 2 4 1 2 3 5 5 5 5 5 5 6 5 5 5 5 4 3 2 2 2 2 2 2 2 2 2 2 2 1 1
2 3 3 1 2 3 3 1 0 2 3 3 1 4 2 4 4 4 5 5 5 5 4 5 5 5 5 5 5 4 4 3 2 2 2 2 2 1 1 1 1 1 1 2
3 2 2 1 1 3 2 1 1 2 4 4 4 3 2 3 4 3 3 4 4 4 5 4 5 5 5 5 5 5 4 3 3 2 2 2 2 1 1 1 1 1 1 1
3 3 2 2 2 3 3 3 1 1 2 4 5 3 2 3 3 3 3 3 3 3 3 4 4 5 5 4 4 4 4 4 3 3 3 2 2 2 1 2 2 2 2 2
3 3 2 2 5 4 3 2 3 3 3 2 4 3 2 2 2 3 3 2 2 2 2 2 2 3 4 4 4 4 4 3 3 3 2 2 2 2 2 2 2 2 2 2
2 2 4 5 1 1 3 4 3 2 4 3 3 4 2 4 3 2 2 2 2 2 2 1 2 2 3 3 3 3 3 3 3 3 2 2 2 2 2 2 2 2 2 3
1 2 3 2 0 1 3 5 5 3 2 4 4 5 1 3 3 2 2 2 2 2 2 1 2 3 3 3 3 3 3 3 3 2 2 2 2 3 2 3 3 3 3 3
2 4 6 6 4 2 5 6 6 5 4 6 8 8 3 1 0 1 1 2 2 2 2 1 2 2 3 3 4 3 3 3 3 2 2 3 3 3 3 3 3 3 3 3
3 5 8 11 11 9 9 9 9 11 10 9 8 8 7 4 3 2 1 2 2 2 2 2 2 2 2 2 3 3 3 3 3 3 3 3 3 2 3 3 3 3 3 3
3 5 7 9 10 10 12 12 12 13 12 13 13 12 7 5 4 3 2 2 3 3 2 2 2 2 3 3 3 3 3 3 3 3 4 3 3 3 3 3 3 3 3 3
4 4 4 5 6 7 10 10 12 9 8 8 11 10 5 4 4 3 3 3 3 2 2 2 3 3 3 3 3 3 3 3 3 3 3 3 3 3 3 3 3 4 4 3
6 5 4 5 4 8 6 1 4 7 8 8 7 6 4 3 3 2 1 2 3 3 3 2 2 2 2 2 2 2 3 3 4 4 4 4 4 4 3 3 4 4 4 4
7 6 4 4 6 9 5 2 2 4 5 4 5 4 3 3 3 2 1 1 2 3 3 2 2 3 2 2 2 2 2 3 4 4 4 4 4 4 4 4 5 4 4 4
3 4 5 5 5 6 2 2 2 1 4 1 1 2 2 2 3 3 2 3 4 3 3 3 2 3 3 3 2 2 3 4 5 5 4 4 4 4 5 5 5 4 4 4
4 5 8 9 8 7 1 2 3 2 3 2 1 2 2 2 3 3 3 4 4 4 4 3 3 3 3 3 2 3 4 5 4 3 3 3 4 4 5 4 4 4 4 4
7 6 7 6 7 7 1 2 2 2 2 3 3 2 3 4 4 4 4 4 4 4 4 3 2 3 3 3 3 4 5 4 3 3 3 4 4 4 4 4 4 4 4 4
7 7 4 7 6 3 2 2 1 2 3 3 3 3 4 5 5 5 5 5 5 4 4 3 3 4 4 3 3 5 5 3 3 3 4 4 4 4 4 4 4 4 4 3
4 3 4 6 6 4 3 3 2 2 3 3 3 4 5 6 7 7 6 6 5 4 4 3 4 4 4 4 4 4 4 3 3 4 4 4 4 4 4 4 4 4 4 4
5 3 5 8 7 6 4 3 3 3 4 5 5 5 5 6 7 7 6 6 5 5 4 4 4 5 5 5 4 4 3 3 3 4 4 4 4 5 4 4 4 4 5 5
6 7 7 8 5 4 5 3 3 4 5 5 5 6 5 6 7 7 6 6 5 5 5 4 5 5 5 5 5 4 4 4 5 5 5 4 4 4 4 4 4 6 6 8
Wind_Direction
204 239 292 316 309 298 301 292 294 304 324 307 276 280 279 236 200 210 189 174 155 141 130 124 120 119 119 114 111 112 117 117 117 123 120 119 120 89 72 71 64 39 17 10
242 261 325 329 320 309 303 300 300 319 345 312 284 280 269 212 188 187 183 175 157 141 140 132 123 116 116 117 116 122 125 122 124 110 101 98 93 85 90 70 62 40 15 7
286 327 329 311 315 310 312 307 321 322 315 273 274 287 248 195 166 169 178 157 154 155 149 142 135 130 131 133 131 133 126 128 125 109 97 82 69 57 66 82 57 12 25 23
318 337 318 310 318 326 302 330 321 313 312 295 290 292 263 181 171 185 186 169 153 149 140 143 141 142 146 143 134 127 128 137 137 127 131 142 154 166 190 156 115 69 84 45
303 352 317 305 331 328 312 318 302 288 284 293 264 250 274 174 184 194 176 159 147 151 149 152 147 148 149 140 135 133 137 149 137 132 142 146 157 163 145 125 116 78 318 146
248 281 328 328 326 301 298 289 278 260 272 272 239 214 277 211 200 172 152 145 145 145 150 153 142 137 141 136 132 137 145 146 135 141 141 156 177 175 164 187 184 194 226 268
246 188 162 272 293 263 285 320 346 337 247 251 210 204 250 148 87 125 141 142 146 149 157 161 154 153 149 145 148 152 148 145 149 153 156 176 206 207 199 206 201 197 217 234
276 261 160 179 296 299 280 313 167 282 287 304 277 231 232 106 80 81 106 122 134 143 153 158 159 157 157 157 156 157 157 161 164 167 180 194 214 221 211 214 211 198 213 225
297 267 90 154 290 308 287 259 301 282 284 274 255 215 136 116 107 102 111 121 136 145 151 156 160 159 162 164 164 162 164 168 171 176 180 198 206 213 206 207 211 211 219 227
308 286 243 159 210 237 284 312 289 222 288 289 285 258 224 164 170 153 144 145 144 136 140 151 159 157 159 165 167 164 171 177 178 181 192 196 202 215 214 203 207 212 224 227
284 260 255 213 213 214 203 232 237 255 251 255 293 289 25 109 133 148 153 140 136 136 150 160 160 156 155 159 165 171 177 173 177 189 198 196 203 214 217 218 221 214 225 225
259 275 261 248 225 49 228 228 204 215 259 240 262 274 60 76 82 96 126 138 137 136 149 158 155 157 161 170 174 180 184 179 186 191 201 203 207 215 221 231 235 225 227 230
295 258 286 282 234 222 256 249 249 262 273 243 238 258 120 85 81 93 121 149 150 144 152 167 169 173 180 187 186 185 181 183 189 195 202 210 216 219 227 236 242 233 231 232
277 249 232 246 272 262 258 250 232 219 224 245 237 257 273 282 261 226 193 180 174 173 181 195 199 198 194 193 189 185 188 184 188 197 208 222 228 226 228 236 241 236 234 233
226 253 257 266 274 273 262 253 236 231 231 238 255 263 280 296 295 283 232 195 192 202 207 212 215 226 218 202 195 188 189 190 191 197 218 233 236 235 234 237 242 242 240 239
234 260 277 271 259 258 262 253 244 240 241 247 264 271 278 296 309 306 294 252 246 228 216 228 239 238 233 220 208 199 201 204 198 206 225 233 233 237 239 239 241 244 243 241
227 244 266 268 271 283 263 240 230 230 225 225 246 260 281 288 291 291 297 291 267 260 257 247 255 245 240 227 208 215 213 208 205 218 228 232 231 233 239 242 242 244 243 242
224 240 256 278 295 251 243 152 200 219 235 227 241 268 287 288 292 292 304 309 310 306 298 285 281 278 270 258 234 220 212 215 215 220 229 230 230 234 238 240 242 246 242 240
219 218 237 252 261 271 262 220 183 221 259 237 244 272 303 333 328 302 337 345 315 313 315 307 296 288 275 261 249 230 230 227 224 225 228 227 228 234 238 242 248 249 246 249
226 224 229 232 243 250 269 66 49 40 272 302 245 277 312 350 304 283 334 339 327 317 314 308 302 293 272 267 245 235 240 237 234 230 231 228 231 237 241 244 249 250 247 249
187 210 222 234 244 259 276 124 109 195 260 4 4 325 310 274 265 290 330 324 313 309 304 298 293 283 272 264 247 245 246 244 243 241 235 230 230 237 243 246 246 247 248 250
190 197 209 215 231 247 159 125 189 253 359 0 347 330 309 295 299 304 299 294 294 295 296 290 286 284 280 264 246 250 250 249 246 246 244 240 238 242 245 240 246 243 238 247
206 208 210 212 228 265 176 198 259 334 320 326 323 320 308 299 294 295 298 298 293 289 294 294 277 279 276 262 243 250 255 245 238 241 246 248 247 246 241 237 242 246 236 237
236 235 264 272 268 272 263 275 295 311 304 307 301 300 299 294 294 296 296 296 295 289 286 280 267 264 269 263 248 248 253 239 232 241 251 249 246 250 247 242 240 240 236 235
251 220 249 261 270 286 268 267 297 312 305 298 298 297 292 289 287 285 287 286 285 283 277 269 261 260 266 268 263 257 246 233 237 244 250 250 243 242 245 244 241 242 239 233
229 229 235 252 256 265 281 296 301 297 291 289 291 293 293 285 281 283 282 280 281 282 281 276 267 263 266 266 265 262 247 233 234 244 247 243 240 241 240 246 264 259 251 256
Height
1503 1505 1506 1503 1501 1500 1498 1498 1497 1493 1491 1492 1492 1489 1485 1483 1483 1484 1485 1486 1487 1488 1490 1491 1492 1493 1495 1496 1497 1498 1500 1500 1501 1503 1504 1506 1507 1508 1509 1510 1511 1511 1511 1512
1504 1506 1503 1501 1500 1499 1498 1498 1496 1493 1491 1492 1491 1487 1481 1480 1481 1482 1484 1485 1486 1487 1489 1490 1491 1492 1493 1495 1496 1497 1498 1499 1500 1501 1503 1504 1505 1506 1507 1507 1508 1509 1509 1509
1504 1505 1502 1502 1501 1500 1500 1500 1498 1496 1493 1489 1490 1487 1480 1478 1479 1481 1482 1483 1484 1486 1487 1489 1490 1491 1492 1493 1494 1495 1496 1498 1499 1500 1501 1503 1504 1504 1505 1505 1506 1507 1507 1507
1503 1503 1503 1502 1502 1501 1502 1499 1497 1497 1499 1498 1492 1499 1482 1477 1478 1479 1481 1482 1483 1485 1486 1488 1489 1490 1491 1492 1493 1495 1496 1497 1498 1498 1500 1501 1502 1502 1503 1503 1503 1504 1504 1504
1505 1503 1504 1504 1503 1503 1502 1499 1498 1497 1498 1499 1493 1497 1486 1476 1479 1478 1479 1481 1483 1484 1485 1486 1487 1489 1490 1491 1492 1493 1495 1496 1496 1497 1498 1499 1500 1500 1501 1501 1501 1502 1502 1502
1504 1504 1504 1504 1504 1503 1502 1500 1497 1496 1499 1505 1491 1494 1488 1479 1476 1476 1477 1480 1482 1483 1484 1486 1486 1488 1489 1490 1491 1492 1493 1494 1495 1496 1496 1497 1498 1498 1498 1499 1499 1499 1499 1499
1503 1503 1503 1504 1504 1502 1502 1505 1508 1507 1507 1501 1484 1488 1487 1475 1473 1473 1476 1478 1480 1482 1483 1484 1485 1486 1487 1488 1489 1490 1491 1492 1493 1494 1494 1495 1496 1496 1496 1496 1496 1496 1496 1496
1507 1507 1503 1504 1505 1505 1503 1504 1512 1513 1506 1496 1488 1490 1481 1473 1473 1474 1475 1477 1480 1481 1482 1483 1483 1485 1486 1487 1488 1489 1490 1491 1491 1492 1493 1494 1494 1494 1493 1493 1494 1493 1493 1494
1507 1506 1503 1502 1503 1504 1502 1505 1503 1508 1505 1505 1491 1479 1477 1474 1474 1475 1476 1478 1479 1480 1481 1482 1483 1483 1484 1485 1486 1487 1488 1489 1490 1490 1491 1491 1491 1491 1491 1491 1491 1491 1491 1491
1507 1509 1503 1502 1504 1504 1504 1503 1506 1510 1509 1504 1487 1480 1481 1478 1476 1475 1476 1477 1478 1479 1481 1481 1482 1482 1483 1484 1485 1486 1486 1487 1488 1488 1488 1489 1489 1488 1488 1488 1488 1488 1488 1487
1507 1509 1506 1503 1503 1503 1505 1504 1504 1504 1503 1507 1501 1490 1475 1474 1474 1475 1476 1477 1478 1478 1479 1480 1481 1481 1482 1483 1483 1484 1484 1485 1485 1485 1486 1486 1486 1486 1485 1485 1485 1485 1485 1484
1507 1508 1508 1501 1497 1497 1498 1498 1501 1509 1505 1501 1503 1494 1474 1474 1473 1474 1475 1477 1477 1478 1478 1479 1479 1480 1480 1480 1481 1481 1482 1482 1483 1483 1483 1483 1482 1482 1482 1482 1482 1482 1481 1481
1507 1509 1510 1503 1503 1502 1500 1497 1497 1500 1503 1503 1502 1491 1475 1474 1474 1475 1475 1476 1476 1477 1477 1477 1478 1478 1478 1478 1479 1479 1479 1479 1480 1480 1479 1479 1479 1479 1478 1478 1478 1478 1478 1477
1506 1507 1508 1505 1497 1498 1498 1495 1495 1499 1505 1500 1491 1482 1476 1475 1475 1475 1475 1475 1475 1475 1475 1476 1476 1476 1476 1476 1476 1476 1476 1476 1477 1476 1476 1476 1475 1475 1475 1475 1474 1474 1474 1473
1505 1505 1500 1496 1492 1492 1491 1492 1492 1494 1492 1493 1483 1479 1475 1474 1473 1473 1473 1473 1473 1474 1473 1473 1473 1473 1473 1473 1473 1473 1473 1473 1473 1473 1473 1472 1472 1472 1472 1471 1471 1470 1469 1469
1503 1503 1498 1494 1489 1488 1487 1486 1485 1485 1484 1482 1479 1476 1472 1471 1471 1471 1471 1471 1471 1471 1471 1471 1471 1470 1470 1470 1470 1470 1470 1470 1470 1469 1469 1469 1468 1468 1468 1467 1466 1466 1465 1465
1502 1501 1500 1495 1486 1484 1485 1475 1476 1476 1474 1476 1477 1473 1469 1469 1469 1469 1469 1469 1468 1468 1468 1468 1468 1467 1467 1467 1467 1467 1466 1466 1466 1466 1465 1465 1464 1464 1463 1463 1462 1462 1461 1460
1499 1500 1500 1496 1491 1491 1473 1465 1465 1468 1468 1468 1468 1467 1466 1466 1466 1467 1467 1467 1466 1466 1466 1465 1465 1464 1464 1464 1463 1463 1463 1462 1462 1461 1461 1461 1460 1460 1459 1459 1458 1458 1457 1455
1493 1497 1498 1496 1491 1478 1468 1465 1465 1467 1467 1464 1464 1464 1465 1465 1464 1464 1464 1464 1464 1464 1463 1462 1462 1461 1460 1460 1460 1459 1459 1458 1458 1457 1457 1457 1456 1456 1455 1454 1454 1453 1452 1451
1491 1493 1497 1493 1491 1483 1468 1466 1464 1466 1469 1464 1463 1463 1464 1464 1466 1464 1463 1462 1461 1461 1460 1459 1458 1457 1456 1456 1456 1455 1454 1454 1454 1453 1453 1452 1452 1451 1450 1450 1449 1448 1447 1446
1493 1494 1494 1491 1486 1475 1466 1465 1466 1473 1469 1464 1462 1463 1463 1464 1464 1462 1460 1459 1459 1457 1456 1455 1454 1453 1453 1452 1452 1451 1450 1450 1450 1449 1448 1448 1447 1447 1446 1445 1444 1443 1443 1442
1484 1487 1486 1485 1484 1477 1465 1465 1467 1466 1463 1462 1462 1462 1462 1461 1460 1459 1458 1457 1455 1454 1452 1451 1450 1449 1449 1448 1448 1447 1446 1446 1445 1445 1444 1443 1443 1442 1441 1440 1440 1439 1438 1437
1473 1473 1473 1473 1471 1464 1463 1463 1463 1462 1461 1461 1461 1460 1460 1459 1457 1456 1455 1453 1452 1450 1449 1447 1446 1445 1444 1444 1444 1443 1442 1442 1441 1440 1439 1439 1438 1437 1437 1436 1435 1434 1433 1432
1467 1466 1467 1466 1462 1461 1461 1460 1460 1460 1459 1459 1459 1458 1457 1455 1454 1452 1451 1450 1448 1446 1445 1443 1442 1441 1440 1440 1439 1439 1438 1437 1436 1435 1435 1434 1433 1432 1432 1431 1430 1429 1429 1428
1463 1464 1464 1463 1460 1458 1457 1458 1458 1457 1457 1456 1456 1454 1453 1452 1450 1448 1447 1445 1444 1442 1441 1440 1438 1437 1436 1436 1435 1434 1434 1433 1432 1431 1430 1429 1429 1428 1427 1426 1425 1425 1424 1424
1459 1460 1461 1458 1456 1456 1455 1455 1454 1454 1453 1453 1451 1450 1449 1448 1446 1444 1442 1441 1440 1438 1437 1435 1434 1433 1432 1431 1430 1430 1429 1428 1427 1426 1425 1424 1424 1423 1422 1421 1420 1419 1420 1419